Location: Cajon Junction
(34.3117°N, 117.4748°W)
Time: 11:01:01
(UTC+00:00)

Daily predictions for brighter satellites

Satellite Brightness Start Highest point End
(mag) Time Altitude Azimuth Time Altitude Azimuth Time Altitude Azimuth
S3M 3.9 12:00:45 10° N 12:06:55 71° W 12:13:08 10° S
SL-24 R/B - RUBIN 2 4.4 12:02:06 12° SSW 12:07:26 79° ESE 12:13:48 10° NNE
CBERS-1 4.1 12:07:16 10° NNE 12:12:24 82° ESE 12:17:28 10° SSW
Cosmos 1869 Rocket 4.3 12:08:18 10° N 12:12:33 55° E 12:16:45 10° SSE
Chandra Rocket (1) 2.7 12:11:17 21° SW 12:12:59 38° S 12:19:16 10° ESE
Cosmos 1470 Rocket 4.2 12:10:04 10° NNW 12:14:04 34° W 12:18:03 10° SSW
CZ-3 Stage 3 3.9 12:06:21 11° W 12:14:39 45° SSW 12:17:41 10° SE
Cosmos 1470 2.6 12:12:00 10° N 12:15:48 90° W 12:19:34 10° S
Cosmos 1331 Rocket 4.2 12:12:00 10° NNW 12:17:18 77° ENE 12:22:34 10° SSE
USA 290 3.3 12:20:43 10° NW 12:23:10 22° WSW 12:25:36 10° SSW
Cosmos 1655 Rocket 4.1 12:18:58 10° SSW 12:25:00 53° W 12:31:05 10° N
CZ-2C R/B 3.9 12:26:09 10° NNW 12:29:59 21° WNW 12:33:33 11° WSW
MINOTAUR IV R/B 4.5 12:25:53 10° NNW 12:30:17 68° WSW 12:34:40 10° S
Cosmos 2297 3.9 12:29:17 10° NNW 12:34:49 50° WSW 12:40:19 10° S
Cosmos 2369 Rocket 2.1 12:29:46 10° NNW 12:35:20 70° WSW 12:40:51 10° S
Cosmos 1933 Rocket 4.2 12:37:15 10° NNW 12:41:08 33° W 12:45:00 10° SSW
Cosmos 1862 Rocket 4.4 12:36:53 10° S 12:41:11 56° E 12:45:28 10° NNE
Cosmos 2315 Rocket 4.1 12:36:31 10° NNW 12:42:30 54° W 12:48:30 10° SSW
Cosmos 1908 3.0 12:39:10 10° NNW 12:42:45 62° W 12:46:19 10° S
COSMO-SKYMED 1 4.3 12:40:28 10° SE 12:44:29 39° ENE 12:48:32 10° N
SL-14 R/B 3.8 12:40:49 10° S 12:44:43 66° E 12:48:40 10° NNE
USA 276 4.4 12:42:47 10° S 12:44:46 18° SE 12:46:49 10° E
ATLAS 5 CENTAUR R/B 2.7 12:40:38 10° NW 12:45:55 43° WSW 12:52:14 10° S
Cosmos 1733 Rocket 4.4 12:43:32 10° N 12:47:42 45° E 12:51:49 10° SSE
H-2A R/B 2.3 12:43:11 10° N 12:48:04 49° WNW 12:53:03 10° SSW
CZ-3 R/B 3.2 12:28:50 10° WSW 12:50:09 55° S 12:56:33 10° E
Cosmos 1244 Rocket 4.5 12:44:47 10° S 12:51:00 76° W 12:57:11 10° N
Cosmos 1943 4.0 12:46:24 10° SW 12:51:28 33° WNW 12:56:36 10° N
Meteor 1-23 Rocket 4.2 12:46:18 10° SSW 12:51:56 69° W 12:57:34 10° N
